Regional Weather Roundup
Issued by NWS

Home | Current Version | Previous Version | Graphics & Text | Print | Product List | Glossary Off
Versions: 1 2 3 4 5 6 7 8 9 10 11 12 13 14 15 16 17 18 19 20 21 22 23 24 25 26 27 28 29 30 31 32 33 34 35 36 37 38 39 40 41 42 43 44 45 46 47 48 49 50

000
ASUS43 KDMX 290106
RWRIA

WEATHER ROUNDUP FOR IOWA
NATIONAL WEATHER SERVICE DES MOINES IA
800 PM CDT WED JUN 28 2017

NOTE: "FAIR" INDICATES FEW OR NO CLOUDS BELOW 12,000 FEET WITH NO
SIGNIFICANT WEATHER AND/OR OBSTRUCTIONS TO VISIBILITY.

* - THESE STATIONS ARE NOT NWS STATIONS...THUS NOT UNDER NWS
QUALITY CONTROL.  THEY ALSO DO NOT REPORT WEATHER SUCH
AS PRECIPITATION OR FOG.

IAZ001>003-012>014-020>022-031>034-043>046-290200-
   NORTHWEST IOWA

CITY           SKY/WX    TMP DP  RH WIND       PRES   REMARKS
CARROLL *      CLEAR     84  68  58 W8        29.64R HX  87
CHEROKEE *     CLEAR     82  63  52 W5        29.63R HX  83
DENISON *      CLEAR     82  68  61 W6        29.66R HX  85
LE MARS *      SUNNY     84  61  45 VRB7      29.64R HX  84
ORANGE CITY *  MOSUNNY   81  64  57 W7        29.64R HX  82
SHELDON *      CLEAR     82  63  51 W9        29.62R HX  83
SIOUX CITY     SUNNY     86  68  54 W3        29.63R HX  89
SPENCER        CLEAR     81  66  60 W7        29.62R HX  83
STORM LAKE *   CLEAR     81  66  61 W7        29.65R HX  83
$$

IAZ055>058-069>071-079>083-090>094-290200-
   SOUTHWEST IOWA

CITY           SKY/WX    TMP DP  RH WIND       PRES   REMARKS
ATLANTIC *     CLOUDY    79  70  73 S7        29.65S HX  81
AUDUBON *      PTCLDY    81  72  74 S5        29.66S HX  84
CLARINDA *     CLOUDY    73  70  88 SE6       29.68R
COUNCIL BLFS * CLEAR     84  64  51 NW9       29.65S HX  86
CRESTON *      CLOUDY    70  64  83 S21G29    29.69F
HARLAN  *      CLEAR     82  70  65 W6        29.67S HX  86
LAMONI         CLOUDY    69  64  84 S9        29.70F
RED OAK *      MOCLDY    79  72  78 SE7       29.66R HX  82
SHENANDOAH *   CLOUDY    75  70  83 SE9G15    29.66R
$$

IAZ047>049-059>061-072>074-084-290200-
   CENTRAL IOWA

CITY           SKY/WX    TMP DP  RH WIND       PRES   REMARKS
AMES           CLOUDY    76  68  76 S13G22    29.63S
ANKENY *       CLOUDY    75  68  78 S12       29.65F
BOONE *        CLOUDY    79  70  73 SW13G23   29.63R HX  81
CHARITON *     CLOUDY    77  63  61 S17G24    29.68F
DES MOINES     CLOUDY    74  68  81 SW13G20   29.65F
GRINNELL*      MOCLDY    72  66  82 S9        29.68S
KNOXVILLE *    CLOUDY    75  72  88 S9        29.64F
MARSHALLTOWN   CLOUDY    71  65  81 NE14      29.67R
NEWTON *       CLOUDY    72  68  88 S8G15     29.66F
PELLA *        CLOUDY    75  71  88 SW6       29.67F
PERRY *          N/A     79  71  76 S13       29.64S HX  81
$$

IAZ004>006-015-016-023>025-035-036-290200-
   NORTH CENTRAL IOWA

CITY           SKY/WX    TMP DP  RH WIND       PRES   REMARKS
ALGONA *       CLEAR     81  66  61 SW5       29.62S HX  83
CLARION *        N/A     79  77  94 S7        29.62S HX  83
ESTHERVILLE    CLEAR     79  67  66 W9        29.61R HX  81
FORT DODGE *   CLEAR     81  70  69 W6        29.63S HX  84
MASON CITY     CLOUDY    75  67  76 S12       29.62F
FOREST CITY *    N/A     82  54  36 W6        29.61S HX  81
WEBSTER CITY * MOCLDY    79  72  78 S13       29.60S HX  82
IOWA FALLS *   LGT RAIN  67  66  97 SE13      29.67R
$$

IAZ007>011-017>019-026>030-037>042-050>054-066-290200-
   NORTHEAST IOWA

CITY           SKY/WX    TMP DP  RH WIND       PRES   REMARKS
CEDAR RAPIDS   CLOUDY    77  73  87 SW14      29.67R
CHARLES CITY * CLOUDY    73  66  78 SW16      29.63R
CLINTON *      PTCLDY    78  69  73 S23G29    29.69S HX  80
DECORAH *      CLOUDY    70  66  88 CALM      29.58F
DUBUQUE        TSTM      66  64  93 VRB7      29.68R FOG
MONTICELLO *   RAIN      75  72  88 W12G24    29.69R
OELWEIN *      CLOUDY    70  64  83 SW14      29.67R
WATERLOO       LGT RAIN  70  62  76 W18G25    29.66R
$$

IAZ064-065-067-068-078-290200-
   EAST CENTRAL IOWA

CITY           SKY/WX    TMP DP  RH WIND       PRES   REMARKS
IOWA CITY      LGT RAIN  80  70  71 SW12G24   29.65F HX  83
MT. PLEASANT * CLOUDY    81  67  61 S17G23    29.74F HX  83
MUSCATINE *    CLOUDY    79  70  73 S17       29.68F HX  81
QUAD CITIES    LGT RAIN  80  68  66 S10G23    29.68F HX  83
$$

IAZ062-063-075>077-085>089-095>099-290200-
   SOUTHEAST IOWA

CITY           SKY/WX    TMP DP  RH WIND       PRES   REMARKS
BURLINGTON     CLOUDY    82  69  64 S15       29.75F HX  85
FAIRFIELD *    CLOUDY    79  70  73 S16G24    29.72F HX  81
FORT MADISON * CLOUDY    82  70  65 S13G18    29.78F HX  86
KEOKUK *       CLOUDY    82  68  61 S8        29.78R HX  85
OSKALOOSA *      N/A     76  70  81 S15G25    29.65F
CENTERVILLE *  RAIN      75  73  94 W3        29.82R
OTTUMWA        LGT RAIN  78  73  84 S25G35    29.64F HX  81
WASHINGTON *   CLOUDY    77  72  83 SW21G29   29.69F
$$

ABBREVIATIONS USED IN REMARKS
   TC - TEMPERATURES IN CELSIUS
  WCI - WIND CHILL INDEX
   HX - HEAT INDEX
  VSB - VISIBILITY
$$





USA.gov is the U.S. government's official web portal to all federal, state and local government web resources and services.